Cloud_Cover
0 0 0 0 1 5 99 95 90 43 100 100 100 99 100 100 97 81 63 98 100 100 100 100 100 27 0 0 0 0 0 0 0 0 0 0 26 61 100 100 100 100 100 100
0 0 0 0 0 13 100 100 55 22 100 92 98 100 100 100 100 76 100 100 100 100 100 100 100 16 0 0 0 0 0 0 0 0 0 0 16 100 100 100 100 100 100 100
1 0 0 0 0 45 67 66 89 100 100 100 100 100 100 100 100 96 100 100 100 100 100 100 100 99 1 0 0 0 0 0 0 0 0 26 42 90 100 100 100 100 100 100
3 0 0 0 1 5 82 5 78 85 100 85 88 100 100 100 100 100 100 100 100 100 100 100 100 100 98 1 0 0 0 1 1 0 0 25 4 100 100 100 100 100 100 100
0 0 0 3 4 0 9 4 99 100 100 100 100 100 100 100 100 100 100 100 100 100 100 100 100 100 100 67 0 23 41 25 73 40 0 0 0 100 100 100 100 100 100 100
0 0 0 1 0 0 0 1 39 98 100 100 100 100 100 100 100 100 100 100 100 100 100 100 100 100 100 100 68 100 87 82 98 100 79 77 92 100 100 100 100 100 100 100
0 0 0 0 4 0 1 73 15 5 46 100 100 100 100 100 100 100 100 100 100 100 100 100 100 100 100 100 100 100 100 100 100 100 100 100 97 100 100 100 100 100 100 100
50 4 2 5 3 3 2 7 100 55 62 100 98 95 96 100 100 100 100 100 100 100 100 100 100 100 100 100 100 100 100 100 100 100 100 100 100 100 100 100 100 100 100 100
86 4 0 5 5 1 48 98 100 100 81 96 76 100 100 100 100 95 57 82 66 95 100 100 100 100 100 100 100 100 100 100 100 100 100 100 100 100 100 100 100 100 100 100
50 58 0 5 4 9 63 100 100 100 100 100 86 51 80 83 83 22 51 100 93 100 100 100 100 100 100 100 100 100 100 100 100 100 100 100 100 100 100 100 100 100 100 100
94 55 3 4 5 23 71 77 100 100 100 100 100 95 99 92 98 100 99 99 100 98 100 100 100 100 100 100 100 100 100 100 100 100 100 100 100 100 100 100 100 100 100 100
8 63 99 5 2 5 45 100 100 100 100 100 100 100 100 100 100 99 86 100 100 100 100 100 100 100 100 100 100 100 100 100 100 100 100 100 100 100 100 100 100 100 100 100
22 10 25 0 4 4 14 100 100 100 100 100 100 100 100 100 100 100 100 100 99 100 100 100 100 100 100 100 100 100 100 100 100 100 100 100 100 100 100 100 100 100 100 100
7 45 1 3 12 11 88 80 76 100 100 98 100 100 100 100 100 100 100 100 100 100 100 100 100 100 100 100 100 100 100 100 100 100 100 100 100 100 100 100 100 100 100 100
6 78 34 5 62 93 99 99 91 85 100 93 100 100 100 100 100 100 100 100 100 100 100 100 100 100 100 100 100 100 100 100 100 100 100 100 100 100 100 100 100 100 100 100
33 78 85 82 31 74 100 21 80 25 100 100 100 100 100 100 100 100 100 100 100 100 100 100 100 100 100 100 100 100 100 100 100 100 100 100 100 98 76 100 100 100 100 100
29 87 95 58 28 83 5 72 88 80 76 100 59 100 100 100 100 100 100 100 100 100 100 100 100 100 100 100 100 100 100 100 100 100 100 100 100 100 100 100 100 100 100 100
19 87 85 89 80 5 12 27 5 45 94 92 97 100 100 100 100 100 100 100 100 100 100 100 100 100 100 100 100 100 100 100 100 100 100 100 100 99 49 95 100 100 100 100
10 77 88 20 93 13 19 80 83 33 5 82 100 88 96 100 100 100 100 100 100 100 100 100 100 100 100 100 100 100 100 100 100 100 100 100 100 19 50 99 100 100 100 100
55 52 7 90 99 0 0 6 5 48 4 5 21 100 88 86 100 100 100 100 100 100 100 100 100 100 100 100 100 100 100 100 100 100 100 100 100 99 96 100 100 100 100 100
94 98 67 93 97 3 4 5 5 5 5 5 5 26 99 100 99 75 100 100 100 100 100 98 100 100 100 100 100 100 99 100 100 74 96 84 11 100 100 100 100 100 100 100
23 47 71 92 74 2 5 3 0 2 52 6 6 5 55 13 51 100 84 67 9 90 100 100 92 100 41 98 86 12 26 5 18 36 8 5 5 5 54 92 100 100 100 100
5 5 10 0 0 4 2 0 4 5 5 5 5 5 13 72 87 43 55 93 95 33 25 76 37 6 5 27 20 8 5 22 100 94 86 87 76 79 43 76 61 11 21 15
9 5 5 2 1 5 5 5 5 5 4 0 0 0 2 4 6 60 93 99 100 98 74 56 62 74 88 94 75 65 70 80 74 58 5 34 34 41 22 83 92 100 98 100
67 3 5 4 5 3 4 5 3 5 5 0 0 0 0 0 0 0 1 2 4 5 10 52 76 84 69 42 35 19 17 14 7 5 5 5 5 5 5 19 55 39 99 99
100 10 3 5 5 5 0 0 0 0 0 0 0 0 0 0 0 0 0 0 0 0 0 2 5 5 5 5 13 18 29 31 13 9 17 21 7 5 7 5 5 5 59 100